Reflectivity
-13 -13 -5 21 12 2 26 30 31 8 -14 29 9 -6 -20 -20 -20 -20 -20 -20 -20 -20 -20 -20 -20 -20 -20 -20 -19 -18 -10 -20 -20 -20 -20 -20 -20 -20 -20 -20 -20 -20 -20 -20
-1 8 11 14 15 18 25 33 34 19 -20 7 -6 -17 -20 -20 -20 -20 -20 -20 -20 -20 -20 -20 -20 -20 -17 -16 -20 -20 -20 -20 -20 -20 -20 -20 -20 -20 -20 -20 -20 -20 -20 -20
8 17 18 11 12 -0 22 34 27 35 21 -20 -20 -6 -19 -20 -20 -20 -20 -20 -20 -20 -20 -20 -20 -20 14 -13 -10 -20 -20 -20 -17 -20 -20 -20 -20 -20 -20 -20 -20 -20 -20 -20
14 15 15 16 3 10 30 38 28 16 18 15 -20 -10 -19 -20 -20 -20 -20 -20 -20 -20 -20 -20 -20 10 4 -4 8 -7 -20 -20 -20 -20 -20 -20 -20 -20 -20 -20 -20 -20 -20 -20
16 15 16 20 24 26 32 31 32 25 -20 3 4 -20 -3 -20 -20 -20 -20 -20 -20 -20 -20 -20 -20 -20 3 -2 -20 -20 -0 -17 -20 -20 -19 -20 -20 -20 -20 -20 -20 -20 -20 -20
15 19 19 22 27 29 34 26 14 8 17 -20 -2 -20 -20 -19 -13 -19 -20 -20 -20 -20 -20 -20 -20 -20 -20 -20 -20 -20 -20 -20 -20 -20 -20 -20 -20 -20 -20 -20 -20 -20 -20 -20
15 18 21 26 28 29 23 15 12 23 15 -20 -20 -13 -20 -20 -20 -20 -16 -20 -20 -20 -20 -20 -20 -20 -20 -20 -20 -20 -20 -20 -5 19 -6 12 -20 -20 -20 -20 -20 -20 -20 -20
15 15 23 26 29 31 25 12 13 9 -13 4 -19 -17 2 -20 -20 -16 -20 -20 -20 -20 -20 -20 -20 -20 -20 -20 -20 -20 -20 -20 -7 -19 11 -1 -20 -20 -20 -20 -20 -20 -20 -20
18 17 17 25 30 31 29 21 22 14 8 3 2 0 -16 -7 -6 -20 -20 -20 -20 -20 -20 -20 -20 -20 -20 -20 -20 -20 -5 -20 -20 -1 -20 2 -20 -20 -20 4 -19 -20 -20 -20
-8 5 7 19 25 32 33 31 25 33 28 13 13 -6 -13 -20 -20 -20 -20 -16 -20 -20 -20 -20 -20 -20 -20 -20 -20 -20 -20 -4 -8 4 -11 -16 -15 -14 3 -6 20 -20 -20 -20
-20 -20 -20 -18 22 24 36 36 30 21 29 29 26 -17 -20 -20 -20 -20 -20 -20 -20 -20 -20 -20 -20 -20 -20 -20 -20 -20 -20 -20 -20 -20 15 -6 -20 -18 -2 4 1 -20 -18 -2
14 2 -19 4 11 20 32 32 20 29 28 17 -14 -20 -20 -20 -20 -20 -20 -20 -20 -20 -20 -20 -20 -20 -20 -20 -20 -20 -20 -20 -20 -20 -18 -20 -20 0 22 34 31 13 -20 -20
1 7 17 17 6 14 24 32 5 32 35 25 28 21 -20 -20 -20 -20 -20 -20 -20 -20 -20 -20 -20 -20 -20 -20 -20 -20 -20 -20 -20 -20 -20 -20 -20 -12 10 30 17 14 14 7
-5 -10 -7 9 24 28 21 6 12 27 17 21 16 -19 -20 -20 -20 -20 -20 -20 -6 -5 20 3 -20 -20 -20 -20 -20 -20 -20 -20 -20 -20 -20 -20 -8 -14 17 11 10 15 3 14
-18 14 9 6 13 35 32 6 -14 3 -4 7 -20 -20 -20 -20 -10 -20 13 -4 -17 7 23 -20 -20 -18 -20 -20 -20 -20 -20 -20 -20 -20 -20 -17 -18 7 -15 5 -3 -7 -20 -20
15 19 -12 14 22 38 34 35 15 19 22 -9 -20 -20 -20 -17 -18 5 21 18 18 17 12 3 -20 -20 -14 7 -20 -20 -20 -20 -20 -20 -7 -16 -15 -14 -20 -6 -1 -9 1 -20
19 14 13 1 26 41 22 12 6 -18 -20 -20 -15 -4 -16 -13 -20 9 37 1 4 3 9 -4 1 -18 24 32 4 -20 -20 -20 -20 -20 5 33 15 13 -5 13 18 8 22 -18
21 17 15 16 27 36 21 -20 -20 -20 -20 -20 24 17 24 19 21 36 17 18 5 -18 -3 -20 13 21 26 24 20 14 -20 -20 -20 1 -4 2 -6 6 -2 14 19 -20 -11 -20
19 21 25 34 32 24 -4 6 -20 -20 -14 13 29 -10 14 27 19 -20 -20 -20 -20 -20 -20 14 16 -1 21 12 -18 -20 -3 -5 -20 -20 -20 -11 2 -4 -2 2 -20 -20 -20 -20
36 33 34 38 19 -8 11 -10 11 2 38 29 11 -20 9 -20 -20 -20 -17 -20 -4 13 -0 -15 -20 -4 -15 -20 -20 -20 -5 5 23 8 -14 -12 -19 7 -8 -1 -20 -20 -20 -20
-11 -0 5 13 8 15 12 12 27 34 4 -9 -20 -20 -20 -20 -20 -20 -20 -6 -2 1 -16 4 -20 -19 -1 -20 -19 -20 -6 -10 -13 1 14 10 -18 6 23 -13 -20 -20 -20 -20
25 24 28 39 35 26 16 12 -9 -20 -15 -20 -20 -20 -20 -20 -20 -20 -20 -20 17 23 16 -17 -17 7 -20 -11 -4 -20 -19 -17 -16 -17 -15 -18 -19 1 -16 -20 -20 -20 -18 -11
-4 -15 -20 -20 -19 -20 -20 -20 -20 -20 -20 -13 -20 -20 -20 -20 -20 -20 4 9 12 8 22 -2 -4 -2 -20 -5 -20 -20 -16 -13 -17 -11 -6 -4 -2 -10 -7 -2 -12 -15 -9 10
-20 -20 -20 -20 -20 -20 -20 -20 -20 -20 -17 -17 -20 -20 -20 -19 -20 -20 -20 -17 -19 -20 -20 11 14 -5 -19 -12 -6 -18 -16 -17 -20 -13 3 10 8 -8 -17 -11 2 6 3 10
-20 -20 -20 -20 -5 -12 -17 -15 -16 -18 -14 -11 -19 -20 -16 -20 -20 -20 -20 -20 -20 -19 -20 -20 -19 -20 -20 -14 -13 -11 -7 3 6 10 7 -11 -20 -20 -8 3 -1 -10 -13 -1
-20 -20 -20 -20 -20 -20 -20 -20 -20 -17 7 1 -2 -20 -16 -20 -20 -20 -20 -20 -20 -20 -20 -16 -3 6 9 3 -4 -8 -1 3 7 9 4 -2 -11 -12 2 -0 -6 -20 -20 -20
-20 -20 -20 -20 -20 -19 -18 -18 -19 -13 -20 -20 -20 -20 -17 -15 -20 -20 -11 -3 2 14 8 1 1 3 8 12 15 16 18 17 14 12 12 13 12 12 9 3 -0 -20 -20 -20
Wind_Speed
24 23 22 22 20 18 11 5 6 8 12 6 4 10 8 9 12 3 3 4 3 3 6 3 3 3 4 8 7 5 9 6 13 19 8 3 4 7 9 6 4 2 4 10
25 24 23 23 21 18 3 4 3 6 9 11 13 4 11 10 6 8 3 3 5 4 2 4 3 6 6 10 9 0 2 3 10 9 4 6 6 6 7 4 3 9 7 7
26 25 24 23 23 21 10 3 6 4 7 2 15 8 10 13 12 7 3 3 2 1 3 3 6 5 6 15 6 8 4 4 7 12 8 5 5 8 7 10 6 4 9 9
26 25 24 24 24 22 10 6 5 5 8 15 9 16 8 15 12 12 1 6 13 5 3 3 5 9 13 4 4 3 4 2 8 12 10 13 8 7 8 8 11 13 10 11
27 27 27 24 24 25 12 6 5 4 2 14 20 15 16 14 16 7 9 14 8 5 11 8 7 12 4 7 3 4 1 2 7 6 8 8 15 17 20 14 7 8 6 6
29 28 26 25 25 25 9 5 3 3 8 14 17 19 17 14 12 10 20 8 7 8 14 9 11 10 8 10 11 4 3 4 4 4 12 9 11 12 18 8 6 7 9 9
29 28 27 27 28 27 7 4 4 5 6 13 13 16 22 23 18 19 4 11 9 8 5 8 7 8 13 11 9 7 4 4 4 1 7 5 7 7 12 15 15 8 6 6
26 27 28 28 29 30 11 5 6 7 9 8 17 16 19 19 19 17 16 13 8 4 4 3 4 3 4 8 9 10 6 4 4 3 4 9 18 6 4 9 19 13 11 9
23 23 24 27 29 32 16 10 4 4 5 15 10 17 16 10 10 12 9 11 3 3 1 2 4 4 4 4 1 8 5 4 4 3 3 7 5 10 14 6 14 7 10 9
22 22 22 23 23 25 16 5 15 3 4 7 14 15 14 8 8 6 6 7 7 8 3 2 3 6 4 4 4 4 5 2 6 4 3 8 7 10 13 5 13 4 5 5
25 25 25 24 24 25 16 3 7 10 5 2 3 15 7 7 11 6 5 3 1 3 5 4 4 3 6 5 4 6 6 6 4 4 4 9 5 8 4 13 8 4 3 3
27 28 27 26 25 26 22 3 6 5 3 2 1 3 0 10 22 12 7 7 6 6 4 3 1 2 1 4 4 2 3 7 7 8 8 6 4 6 7 19 21 7 3 3
25 25 27 28 28 26 22 5 7 2 1 2 3 6 4 3 2 4 7 3 5 4 5 5 4 5 4 4 5 3 3 4 5 3 8 15 13 13 15 22 21 8 5 5
24 25 26 26 28 29 21 7 8 4 3 3 4 3 4 7 3 3 10 4 3 4 2 3 2 3 3 5 4 5 5 5 3 8 8 11 15 17 20 18 16 9 6 7
22 23 25 26 27 31 13 8 9 5 3 4 2 3 6 8 11 4 6 9 5 3 2 2 2 2 2 2 2 1 3 3 2 3 8 10 10 10 11 8 4 5 5 4
23 24 25 25 27 30 10 5 9 8 2 3 2 2 3 8 9 7 5 4 2 3 4 3 4 3 2 3 4 4 6 6 6 5 8 18 16 3 15 8 9 10 11 11
23 26 25 25 28 14 6 6 7 12 3 3 1 3 3 12 9 4 3 1 1 3 3 3 4 3 3 1 3 5 6 9 8 9 12 6 8 8 13 11 10 12 12 13
27 27 27 31 30 11 1 3 22 11 5 1 1 3 4 1 3 4 3 3 1 1 3 1 3 1 2 2 6 7 9 11 6 10 6 7 4 10 15 12 13 15 14 13
28 36 34 13 4 3 4 19 12 5 3 2 3 3 4 2 1 3 3 3 2 0 3 3 3 2 2 5 8 9 10 8 11 15 5 8 11 10 12 13 14 14 13 13
25 7 4 4 3 27 11 5 3 3 2 3 1 2 3 3 2 2 3 1 3 3 4 3 4 4 7 9 8 8 10 8 8 10 5 8 7 8 9 11 11 12 12 12
4 4 4 7 11 5 4 4 3 4 2 3 0 2 4 4 4 3 1 3 3 4 3 4 3 3 3 6 8 9 9 8 9 7 9 9 8 8 7 10 12 11 13 15
3 6 6 2 1 2 5 3 0 3 3 3 3 2 3 2 3 4 2 3 3 2 3 5 3 4 6 7 8 9 9 9 10 11 11 10 12 10 11 12 12 15 15 13
4 6 7 5 5 11 6 5 4 4 4 4 3 3 2 3 3 3 2 3 3 3 4 3 2 4 6 7 7 9 10 11 12 13 13 13 14 13 13 14 12 14 14 12
7 7 9 6 6 4 2 1 2 3 2 4 2 3 3 2 4 2 4 2 5 5 4 3 2 6 6 7 7 9 10 11 13 13 13 14 13 14 15 15 13 14 15 12
7 6 7 5 2 2 3 3 2 3 4 2 2 4 3 4 5 4 4 6 5 3 1 1 3 6 7 8 8 9 9 10 11 11 12 13 14 15 16 15 14 14 13 14
6 9 5 4 3 5 4 4 3 3 4 1 3 4 4 5 3 6 5 3 3 1 2 3 5 9 9 10 10 11 11 11 11 11 12 13 14 14 14 14 14 14 14 15
6 4 3 1 1 2 3 3 4 3 2 4 3 6 6 3 4 4 5 3 4 5 6 6 8 9 9 10 10 10 10 11 11 13 13 11 10 11 12 15 12 13 14 13
Wind_Direction
258 256 252 253 243 242 237 241 224 166 142 190 204 221 188 241 264 339 278 269 307 317 15 332 299 294 57 4 357 178 197 170 234 241 233 212 154 203 184 171 231 224 175 246
256 255 250 246 239 225 224 229 159 191 165 210 210 210 213 232 256 255 297 294 201 236 295 321 336 326 354 27 348 77 332 272 254 289 337 286 216 199 201 157 111 197 195 264
254 248 244 236 236 227 214 144 179 180 206 215 198 195 227 214 212 267 287 280 321 260 247 212 292 334 325 349 340 288 181 222 192 239 228 198 201 215 204 196 195 211 226 239
252 245 240 231 227 222 210 176 217 203 194 204 177 190 215 208 213 213 235 253 231 236 337 351 254 266 307 351 289 341 69 302 355 285 231 222 246 250 261 228 225 210 220 215
248 245 235 227 223 220 221 167 189 186 177 180 198 197 209 212 215 209 211 241 284 274 240 210 306 298 289 271 292 25 273 284 15 305 276 226 245 243 257 260 233 250 252 250
247 241 231 224 219 210 208 190 207 190 170 172 193 210 212 208 217 225 232 222 247 259 254 226 227 240 240 261 280 288 226 130 49 284 335 322 275 232 239 241 202 185 219 223
242 235 228 221 215 210 209 170 143 203 204 204 196 186 204 207 222 227 246 232 234 235 273 305 270 246 248 249 239 206 164 109 121 303 322 223 268 210 223 229 243 235 240 231
234 228 223 218 211 208 215 203 191 195 228 203 203 195 189 203 208 223 228 243 237 330 286 265 287 309 229 238 226 212 182 123 142 188 195 300 302 309 278 216 251 224 224 238
230 225 219 214 210 203 207 209 224 197 209 216 177 198 196 178 187 203 240 245 245 8 174 174 231 241 243 220 227 191 156 81 135 151 178 234 223 332 313 308 263 257 185 213
223 220 213 209 206 207 197 213 194 201 207 198 186 186 195 162 145 166 194 224 217 184 169 232 196 245 242 250 186 133 158 153 199 209 252 281 265 335 350 279 251 319 319 319
221 217 214 211 205 196 200 144 190 188 210 211 249 180 167 158 179 154 205 104 228 110 179 176 211 188 232 206 180 179 160 153 183 163 195 269 329 355 67 322 303 340 26 302
220 213 210 208 204 198 187 187 179 192 183 154 183 271 143 192 183 178 183 188 172 179 150 186 153 215 6 173 231 203 210 183 178 184 209 212 187 199 247 267 280 278 292 311
214 211 208 205 198 193 184 140 145 129 135 116 194 193 209 80 136 239 177 252 196 161 180 163 197 222 115 171 226 219 296 180 199 98 233 255 249 243 221 246 249 243 218 270
202 199 198 199 196 184 172 157 157 120 114 161 231 162 194 195 120 240 235 172 126 116 140 133 148 176 171 206 208 168 207 136 212 260 283 289 282 271 258 243 239 266 271 174
191 191 189 189 187 173 145 139 164 202 165 184 194 144 203 174 185 225 238 190 148 159 108 115 216 251 126 257 47 60 7 129 135 248 344 313 285 342 321 250 332 296 267 283
190 187 177 174 174 157 131 131 183 208 214 120 189 262 185 160 160 168 234 240 137 151 142 190 201 231 196 225 163 69 26 3 330 291 322 291 280 311 3 360 39 33 47 1
163 163 160 158 155 136 147 173 160 154 140 100 176 193 166 166 129 107 230 349 150 129 171 191 178 198 196 194 127 6 343 330 314 341 348 273 6 347 345 356 23 52 38 32
132 138 141 132 134 111 66 0 134 115 93 120 312 183 142 77 121 160 179 140 112 86 169 21 187 74 140 152 10 350 355 331 319 348 340 306 2 12 7 5 26 41 34 21
112 115 118 120 59 73 60 106 76 54 67 112 258 129 131 130 102 90 38 89 78 354 150 235 96 81 59 20 348 340 341 338 313 315 311 351 37 27 18 12 36 48 38 36
110 98 72 81 85 113 107 58 83 36 297 221 123 281 102 91 91 82 102 74 126 185 228 91 66 81 92 17 357 338 327 325 336 324 357 350 16 41 39 34 40 57 56 61
41 54 67 103 124 48 39 95 154 178 194 352 278 119 109 359 105 131 127 150 155 196 176 135 103 90 37 359 9 358 349 10 17 30 37 24 39 42 43 51 63 68 69 71
132 96 81 130 110 118 128 134 279 70 78 23 34 31 101 79 100 102 163 186 193 134 43 73 76 42 28 11 28 16 24 38 49 49 56 56 61 63 75 69 60 64 65 59
33 40 52 40 339 43 46 16 17 43 8 359 345 78 84 80 58 77 147 209 70 83 52 80 56 25 38 30 38 41 43 56 63 64 65 66 67 62 68 70 60 70 70 68
59 49 38 65 10 38 22 330 242 291 334 336 332 58 53 33 54 3 75 36 49 66 63 74 24 35 43 43 50 57 51 53 59 58 61 64 65 65 64 65 65 69 69 68
55 39 46 53 351 335 302 289 356 342 310 327 95 61 51 22 63 24 70 43 61 64 120 76 31 37 46 52 53 57 59 58 59 60 62 62 62 62 61 58 62 66 69 68
57 42 19 332 46 340 351 356 340 327 327 309 19 84 70 43 46 48 16 67 64 81 57 78 76 68 63 62 54 50 49 54 60 62 64 62 61 64 69 65 60 62 64 67
49 32 6 39 76 308 312 316 323 298 359 51 43 57 42 71 58 54 19 34 77 86 71 62 63 72 70 68 65 62 63 60 54 56 52 57 63 70 70 68 62 65 65 68